Content
SEND FEEDBACK

Daily
Averages
Monthly
Summary
United States of America

PARMA, MISSOURI


Home > North America > United States > Missouri
Elevation: 279 feet     Latitude: 36 37N     Longitude: 089 48W

WEATHER
 
SELECT A DAY
Number of Records: 210,953;   Date Range: 1/1/95 - 10/24/14
 
SHARE

PRINT THIS DATA

[ ← Previous Day ]
WEATHER ALMANAC - JULY 20, 2014
[ Next Day → ]
[ °C ]   °F
Weather ElementAverageHighLow
Temperature70.9 °F84 °F (3:53 pm)59 °F (5:53 am)
Dewpoint59.8 °F64 °F (8:53 am)55.9 °F (5:53 am)
Humidity71.1 %90 % (2:53 am)43 % (3:53 pm)
Barometer30.02 in30.06 in (7:53 am)29.99 in (2:53 am)
Wind Speed1.7 mph4.6 mph (3:53 pm)
Weather ElementAverage
Visibility6.6 mi
Wind DirectionNE (48.5 °)

Weather ElementTotal
Precipitation---
Cooling Degree Days6.5 (Base 65)
Growing Degree Days21.5 (Base 50)
Averaged from 27 records on July 20, 2014
WEATHER CONDITIONS BREAKOUT
WIND DIRECTION BREAKOUT
WEATHER BY HOUR - JULY 20, 2014
[ °C ]   °F
Local TimeTemperatureDewpointHumidityBarometerVisibilityWind DirectionWind SpeedGust SpeedPrecipitationEventsConditions
1:53 AM63.0 °F59.0 °F87 %30.00 in4.0 miCalmClear
2:53 AM61.0 °F57.9 °F90 %29.99 in4.0 miCalmClear
3:53 AM61.0 °F57.9 °F90 %30.00 in4.0 miCalmClear
4:53 AM61.0 °F57.0 °F87 %30.01 in5.0 miNNW (340°)3.5 mphClear
5:49 AM60.8 °F57.2 °F88 %30.03 in2.0 miCalmScattered Clouds
5:53 AM59.0 °F55.9 °F90 %30.02 in2.0 miCalmPartly Cloudy
6:05 AM61.0 °F57.0 °F87 %30.04 in3.0 miCalmPartly Cloudy
6:13 AM60.1 °F57.0 °F90 %30.04 in2.5 miNorthScattered Clouds
6:38 AM63.0 °F59.0 °F87 %30.05 in3.0 miCalmMostly Cloudy
6:53 AM64.0 °F60.1 °F87 %30.04 in3.0 miCalmMostly Cloudy
7:53 AM66.9 °F62.1 °F84 %30.06 in5.0 miNNE (20°)3.5 mphHaze
8:53 AM73.0 °F64.0 °F73 %30.06 in7.0 miCalmClear
9:53 AM75.9 °F64.0 °F67 %30.06 in10.0 miCalmClear
10:53 AM79.0 °F61.0 °F54 %30.05 in10.0 miNE (50°)3.5 mphClear
11:53 AM82.0 °F57.9 °F44 %30.04 in10.0 miCalmMostly Cloudy
12:53 PM82.0 °F57.9 °F44 %30.03 in10.0 miVariable3.5 mphClear
1:53 PM82.0 °F59.0 °F45 %30.02 in10.0 miVariable3.5 mphPartly Cloudy
2:53 PM82.0 °F57.9 °F44 %30.01 in10.0 miVariable3.5 mphClear
3:53 PM84.0 °F59.0 °F43 %30.00 in10.0 miEast (100°)4.6 mphPartly Cloudy
4:53 PM84.0 °F59.0 °F43 %30.00 in10.0 miEast (80°)4.6 mphClear
5:53 PM82.0 °F60.1 °F47 %29.99 in10.0 miEast (90°)4.6 mphClear
6:53 PM81.0 °F61.0 °F50 %29.99 in10.0 miCalmClear
7:53 PM75.9 °F64.0 °F67 %29.99 in9.0 miESE (120°)3.5 mphClear
8:53 PM72.0 °F63.0 °F73 %29.99 in8.0 miSSE (150°)3.5 mphClear
9:53 PM68.0 °F63.0 °F84 %30.00 in9.0 miCalmClear
10:53 PM66.0 °F62.1 °F87 %30.01 in5.0 miNorth (360°)3.5 mphClear
11:53 PM66.0 °F62.1 °F87 %30.01 in4.0 miCalmClear
Hourly data recorded from KPOF, located miles away from Parma, Missouri







STORIES FROM OUR PARTNERS